Location: Newark
(12.4436°N, 0.6167°W)
Time: 00:04:22
(UTC+00:00)

A-11 Canister half - All Passes

Search period start: 06 December 2019 00:00
Search period end: 16 December 2019 00:00
Orbit: 1526 x 1683 km, 47.3° (Epoch: 05 December)

Date Brightness Start Highest point End Pass type
(mag) Time Alt. Az. Time Alt. Az. Time Alt. Az.
06 Dec - 04:14:41 10° SSW 04:24:25 59° SE 04:34:18 10° NE visible
06 Dec - 06:20:49 10° WSW 06:29:41 35° NW 06:38:40 10° NNE daylight
06 Dec - 12:52:50 10° N 12:58:55 18° NE 13:04:53 10° ENE daylight
06 Dec - 14:55:19 10° NW 15:05:03 75° NE 15:14:26 10° SE daylight
06 Dec - 17:02:48 10° W 17:09:35 22° SW 17:16:18 10° S daylight
07 Dec - 03:53:09 10° SSW 04:02:46 55° SE 04:12:33 10° NE visible
07 Dec - 05:58:58 10° WSW 06:07:58 37° NW 06:17:06 10° NNE daylight
07 Dec - 12:31:24 10° N 12:37:09 17° NNE 12:42:47 10° ENE daylight
07 Dec - 14:33:42 10° NW 14:43:24 71° NE 14:52:48 10° SE daylight
07 Dec - 16:40:49 10° WNW 16:47:58 24° SW 16:55:02 10° S daylight
08 Dec - 03:31:38 10° SSW 03:41:08 51° SE 03:50:48 10° NE visible
08 Dec - 05:37:08 10° WSW 05:46:16 39° NW 05:55:33 10° NNE visible
08 Dec - 12:09:59 10° N 12:15:23 16° NNE 12:20:40 10° ENE daylight
08 Dec - 14:12:03 10° NW 14:21:46 66° NE 14:31:08 10° SE daylight
08 Dec - 16:18:52 10° WNW 16:26:21 26° SW 16:33:44 10° S daylight
09 Dec - 03:10:08 10° SSW 03:19:29 48° SE 03:29:01 10° ENE visible
09 Dec - 05:15:18 10° WSW 05:24:33 42° NW 05:33:58 10° NNE visible
09 Dec - 11:48:36 10° N 11:53:35 15° NNE 11:58:29 10° ENE daylight
09 Dec - 13:50:26 10° NNW 14:00:07 62° NE 14:09:27 10° SE daylight
09 Dec - 15:56:57 10° WNW 16:04:44 28° SW 16:12:24 10° S daylight
10 Dec - 02:48:38 10° SSW 02:57:51 45° SE 03:07:15 10° ENE visible
10 Dec - 04:53:30 10° WSW 05:02:51 44° NW 05:12:24 10° NNE visible
10 Dec - 07:08:46 10° NW 07:10:15 10° NNW 07:11:44 10° NNW daylight
10 Dec - 11:27:16 10° N 11:31:48 14° NNE 11:36:15 10° ENE daylight
10 Dec - 13:28:49 10° NNW 13:38:28 59° NE 13:47:46 10° SE daylight
10 Dec - 15:35:04 10° WNW 15:43:07 31° SW 15:51:02 10° S daylight
11 Dec - 02:27:10 10° SSW 02:36:13 42° SE 02:45:26 10° ENE visible
11 Dec - 04:31:44 10° WSW 04:41:09 47° NW 04:50:49 10° NNE visible
11 Dec - 06:45:46 10° NW 06:48:25 11° NNW 06:51:03 10° NNW daylight
11 Dec - 11:05:58 10° N 11:09:59 13° NNE 11:13:58 10° NE daylight
11 Dec - 13:07:13 10° NNW 13:16:49 55° NE 13:26:04 10° ESE daylight
11 Dec - 15:13:12 10° WNW 15:21:31 33° SW 15:29:40 10° S daylight
12 Dec - 02:05:44 10° SSW 02:14:35 39° SE 02:23:36 10° ENE visible
12 Dec - 04:09:57 10° WSW 04:19:28 50° NW 04:29:13 10° NNE visible
12 Dec - 06:23:09 10° NW 06:26:34 12° NNW 06:30:01 10° N daylight
12 Dec - 10:44:45 10° N 10:48:11 12° NNE 10:51:34 10° NE daylight
12 Dec - 12:45:37 10° NNW 12:55:09 52° NE 13:04:20 10° ESE daylight
12 Dec - 14:51:21 10° WNW 14:59:54 36° SW 15:08:16 10° S daylight
13 Dec - 01:44:18 10° S 01:52:57 36° SE 02:01:46 10° ENE visible
13 Dec - 03:48:12 10° WSW 03:57:47 54° NW 04:07:37 10° NNE visible
13 Dec - 06:00:41 10° NW 06:04:44 13° NNW 06:08:49 10° N daylight
13 Dec - 10:23:38 10° NNE 10:26:21 11° NNE 10:29:02 10° NE daylight
13 Dec - 12:24:01 10° NNW 12:33:28 48° NE 12:42:36 10° ESE daylight
13 Dec - 14:29:31 10° WNW 14:38:17 39° SW 14:46:51 10° SSE daylight
14 Dec - 01:22:54 10° S 01:31:19 33° SE 01:39:54 10° ENE visible
14 Dec - 03:26:29 10° WSW 03:36:06 57° NW 03:46:00 10° NNE visible
14 Dec - 05:38:20 10° WNW 05:42:55 14° NNW 05:47:32 10° N visible
14 Dec - 10:02:49 10° NNE 10:04:31 10° NNE 10:06:13 10° NE daylight
14 Dec - 12:02:25 10° NNW 12:11:48 45° NE 12:20:51 10° ESE daylight
14 Dec - 14:07:42 10° WNW 14:16:40 42° SW 14:25:24 10° SSE daylight
15 Dec - 01:01:30 10° S 01:09:41 31° SE 01:18:02 10° ENE night (unlit)
15 Dec - 03:04:45 10° SW 03:14:25 61° NW 03:24:23 10° NNE visible
15 Dec - 05:16:03 10° WNW 05:21:06 15° NNW 05:26:12 10° N visible
15 Dec - 11:40:50 10° NNW 11:50:07 43° NE 11:59:05 10° ESE daylight
15 Dec - 13:45:55 10° WNW 13:55:04 45° SW 14:03:57 10° SSE daylight
